TimePST,TemperatureF,Dew PointF,Humidity,Sea Level PressureIn,VisibilityMPH,Wind Direction,Wind SpeedMPH,Gust SpeedMPH,PrecipitationIn,Events,Conditions,WindDirDegrees,DateUTC
12:26 AM,39.2,37.4,93,30.06,3.0,Calm,Calm,-,0.03,Rain,Light Rain,0,2013-01-07 08:26:00
12:53 AM,39.9,39.0,97,30.05,4.0,Calm,Calm,-,0.06,Rain,Light Rain,0,2013-01-07 08:53:00
1:36 AM,39.2,39.2,100,30.04,5.0,Calm,Calm,-,0.02,Rain,Light Rain,0,2013-01-07 09:36:00
1:53 AM,41.0,39.0,93,30.05,4.0,Calm,Calm,-,0.02,Rain,Light Rain,0,2013-01-07 09:53:00
2:26 AM,42.8,41.0,93,30.03,8.0,Variable,3.5,-,0.00,Rain,Light Rain,0,2013-01-07 10:26:00
2:53 AM,44.1,41.0,89,30.02,10.0,South,6.9,-,0.00,Rain,Light Rain,170,2013-01-07 10:53:00
3:07 AM,44.6,42.8,93,30.02,10.0,South,6.9,-,0.00,,Overcast,170,2013-01-07 11:07:00
3:53 AM,45.0,42.1,90,30.01,7.0,South,10.4,17.3,0.01,,Overcast,170,2013-01-07 11:53:00
4:53 AM,44.1,42.1,93,30.00,6.0,South,8.1,-,0.02,Rain,Light Rain,180,2013-01-07 12:53:00
5:53 AM,45.0,43.0,93,29.99,5.0,South,5.8,-,0.05,Rain,Light Rain,170,2013-01-07 13:53:00
6:53 AM,46.0,43.0,89,29.99,10.0,SSE,4.6,-,0.03,,Overcast,160,2013-01-07 14:53:00
7:53 AM,46.0,43.0,89,29.99,10.0,SE,4.6,-,0.01,Rain,Light Rain,140,2013-01-07 15:53:00
8:53 AM,46.0,44.1,93,30.02,10.0,SSE,5.8,-,0.01,,Overcast,160,2013-01-07 16:53:00
9:53 AM,46.9,46.0,97,30.05,4.0,South,3.5,-,0.00,Rain,Light Rain,170,2013-01-07 17:53:00
10:48 AM,48.2,46.4,93,30.08,2.5,Calm,Calm,-,0.00,Rain,Light Rain,0,2013-01-07 18:48:00
10:50 AM,48.2,46.4,93,30.08,3.0,Calm,Calm,-,0.00,Rain,Light Rain,0,2013-01-07 18:50:00
10:53 AM,48.0,46.9,96,30.08,3.0,Calm,Calm,-,0.00,Rain,Light Rain,0,2013-01-07 18:53:00
11:04 AM,48.2,46.4,93,30.09,4.0,Calm,Calm,-,0.00,,Overcast,0,2013-01-07 19:04:00
11:29 AM,48.2,46.4,93,30.08,6.0,South,3.5,-,0.00,,Overcast,180,2013-01-07 19:29:00
11:53 AM,48.9,46.9,93,30.07,8.0,South,5.8,-,0.01,,Overcast,180,2013-01-07 19:53:00
12:04 PM,48.2,46.4,93,30.08,7.0,South,5.8,-,N/A,,Overcast,180,2013-01-07 20:04:00
12:30 PM,48.2,46.4,93,30.09,10.0,SW,4.6,-,N/A,,Overcast,230,2013-01-07 20:30:00
12:48 PM,50.0,46.4,87,30.09,10.0,Calm,Calm,-,N/A,,Overcast,0,2013-01-07 20:48:00
12:53 PM,48.9,46.9,93,30.08,10.0,Calm,Calm,-,N/A,,Overcast,0,2013-01-07 20:53:00
1:10 PM,50.0,48.2,94,30.09,10.0,Calm,Calm,-,N/A,,Overcast,0,2013-01-07 21:10:00
1:49 PM,51.8,48.2,88,30.09,10.0,South,5.8,-,N/A,,Overcast,170,2013-01-07 21:49:00
1:53 PM,51.1,48.0,89,30.09,10.0,SSE,5.8,-,N/A,,Overcast,160,2013-01-07 21:53:00
2:04 PM,51.8,48.2,88,30.10,10.0,SSE,5.8,-,N/A,,Overcast,150,2013-01-07 22:04:00
2:26 PM,51.8,48.2,88,30.11,10.0,Calm,Calm,-,N/A,,Overcast,0,2013-01-07 22:26:00
3:03 PM,51.8,48.2,88,30.12,10.0,Calm,Calm,-,0.00,,Overcast,0,2013-01-07 23:03:00
3:17 PM,51.8,48.2,88,30.13,10.0,Calm,Calm,-,0.00,Rain,Light Rain,0,2013-01-07 23:17:00
3:53 PM,50.0,48.9,96,30.15,10.0,Calm,Calm,-,0.00,,Overcast,0,2013-01-07 23:53:00
4:53 PM,48.9,46.9,93,30.14,8.0,Calm,Calm,-,N/A,,Mostly Cloudy,0,2013-01-08 00:53:00
5:53 PM,46.9,45.0,93,30.16,10.0,Calm,Calm,-,N/A,,Overcast,0,2013-01-08 01:53:00
6:53 PM,46.9,43.0,86,30.19,10.0,Calm,Calm,-,N/A,,Overcast,0,2013-01-08 02:53:00
7:53 PM,46.0,42.1,86,30.19,10.0,Calm,Calm,-,N/A,,Overcast,0,2013-01-08 03:53:00
8:53 PM,45.0,43.0,93,30.21,10.0,Calm,Calm,-,N/A,,Overcast,0,2013-01-08 04:53:00
9:53 PM,42.1,42.1,100,30.20,6.0,Calm,Calm,-,N/A,,Overcast,0,2013-01-08 05:53:00
10:04 PM,44.6,42.8,93,30.21,8.0,Calm,Calm,-,N/A,,Overcast,0,2013-01-08 06:04:00
10:36 PM,42.8,41.0,93,30.22,8.0,West,3.5,-,N/A,,Overcast,280,2013-01-08 06:36:00
10:53 PM,42.1,41.0,96,30.22,10.0,Calm,Calm,-,N/A,,Overcast,0,2013-01-08 06:53:00
11:53 PM,43.0,41.0,93,30.21,10.0,Calm,Calm,-,N/A,,Overcast,0,2013-01-08 07:53:00